[Iaude] MPEC N65: 2024 ND1 [a=1.43,e=0.21,i=4.6,H=25.1]
    mpec at cfa.harvard.edu 
    mpec at cfa.harvard.edu
       
    Fri Jul  5 13:57:35 EDT 2024
    
    
  
M.P.E.C. 2024-N65                                  Issued 2024 July 5, 17:56 UT
     The Minor Planet Electronic Circulars contain information on unusual
         minor planets, routine data on comets and natural satellites,
         and occasional editorial announcements.  They are published
    on behalf of Division F of the International Astronomical Union by the
          Minor Planet Center, Smithsonian Astrophysical Observatory,
                          Cambridge, MA 02138, U.S.A.
			  
             Prepared using the Tamkin Foundation Computer Network
                              MPC at CFA.HARVARD.EDU
            URL https://www.minorplanetcenter.net/    ISSN 1523-6714
                                    2024 ND1                                    
Observations:
     K24N01D  C2024 06 28.49034820 32 43.275-10 05 50.14         22.29GVEN065F51
     K24N01D  C2024 06 28.50207220 32 44.911-10 06 08.04         21.76GVEN065F51
     K24N01D  C2024 06 28.51378220 32 46.531-10 06 25.41         22.06GVEN065F51
     K24N01D* C2024 07 02.52823020 43 36.186-11 53 13.46         21.96wXEN065F52
     K24N01D  C2024 07 02.54141820 43 37.889-11 53 35.42         21.89wXEN065F52
     K24N01D  C2024 07 02.55461120 43 39.612-11 53 57.20         21.55wXEN065F52
     K24N01D  C2024 07 02.56781620 43 41.345-11 54 19.13         21.87wXEN065F52
     K24N01D 3C2024 07 03.38934220 45 54.748-12 17 23.25         22.11GVEN065T14
     K24N01D 3C2024 07 03.39031920 45 54.880-12 17 24.98         22.04GVEN065T14
     K24N01D 3C2024 07 03.39129720 45 55.016-12 17 26.77         21.81GVEN065T14
Observer details:
F51 Pan-STARRS 1, Haleakala.  Observers J. Herman, T. Lowe, P. Minguez, A.
    Schultz, I. Smith.  Measurers K. Chambers, T. de Boer, J. Fairlamb, H.
    Gao, M. Huber, C.-C. Lin, E. Magnier, Y. Ramanjooloo, R. Wainscoat, R.
    Weryk.  1.8-m Ritchey-Chretien + CCD.
F52 Pan-STARRS 2, Haleakala.  Observers J. Herman, T. Lowe, P. Minguez, A.
    Schultz, I. Smith.  Measurers K. Chambers, T. de Boer, J. Fairlamb, H.
    Gao, M. Huber, C.-C. Lin, E. Magnier, Y. Ramanjooloo, R. Wainscoat, R.
    Weryk.  1.8-m Ritchey-Chretien + CCD.
T14 Canada-France-Hawaii Telescope, Maunakea.  Observers R. Wainscoat, H.
    Januszewski, V. Khatu.  Measurers R. Weryk, R. Wainscoat.  3.6-m f/4.1
    reflector + CCD.
Orbital elements:
2024 ND1                                                 Earth MOID = 0.1131 AU
Epoch 2024 Mar. 31.0 TT = JDT 2460400.5                 MPC                     
M 307.22249              (2000.0)            P               Q                  
n   0.57931412     Peri.  169.29311     +0.20368548     +0.97618572             
a   1.4251480      Node   112.42662     -0.90411144     +0.21680677             
e   0.2078551      Incl.    4.63256     -0.37562578     +0.00750046             
P   1.70           H   25.10          G   0.15           U   9                  
Residuals in seconds of arc
240628 F51  0.0   0.1-    240702 F52  0.0   0.0     240703 T14  0.0   0.0
240628 F51  0.0   0.2-    240702 F52  0.0   0.1+    240703 T14  0.0   0.0
240628 F51  0.0   0.3+    240702 F52  0.0   0.0
240702 F52  0.2+  0.0     240703 T14  0.0   0.0
Ephemeris:
2024 ND1                 a,e,i = 1.43, 0.21, 5                   q = 1.1289
Date    TT    R. A. (2000) Decl.     Delta      r    Elong.  Phase     V
2024 06 05    19 25 01.4 -03 58 57   0.1650  1.1439   138.8    35.8    22.9
...
2024 06 20    20 08 32.3 -06 59 29   0.1388  1.1313   144.0    31.9    22.4
...
2024 06 28    20 31 20.9 -09 52 59   0.1305  1.1290   147.7    28.8    22.2
...
2024 07 04    20 47 26.3 -12 34 16   0.1268  1.1292   150.9    25.9    22.1
2024 07 05    20 49 59.6 -13 03 15   0.1264  1.1294   151.5    25.4    22.0
2024 07 06    20 52 30.6 -13 32 44   0.1261  1.1297   152.1    24.9    22.0
...
2024 07 12    21 06 39.9 -16 36 53   0.1257  1.1322   155.6    21.7    21.9
...
2024 07 20    21 22 41.9 -20 45 37   0.1289  1.1383   160.2    17.6    21.9
...
2024 08 04    21 42 43.8 -27 17 13   0.1467  1.1572   165.4    12.7    22.0
A. U. Tomatic                (C) Copyright 2024 MPC           M.P.E.C. 2024-N65
    
    
More information about the Iaude
mailing list